TimeEDT,TemperatureF,Dew PointF,Humidity,Sea Level PressureIn,VisibilityMPH,Wind Direction,Wind SpeedMPH,Gust SpeedMPH,PrecipitationIn,Events,Conditions,WindDirDegrees,DateUTC
12:53 AM,68.0,64.0,87,30.15,9.0,Calm,Calm,-,N/A,,Overcast,0,2013-08-19 04:53:00
1:53 AM,68.0,64.0,87,30.13,9.0,Calm,Calm,-,N/A,,Overcast,0,2013-08-19 05:53:00
2:53 AM,68.0,64.0,87,30.13,10.0,Calm,Calm,-,N/A,,Overcast,0,2013-08-19 06:53:00
3:53 AM,68.0,64.0,87,30.12,10.0,Calm,Calm,-,N/A,,Overcast,0,2013-08-19 07:53:00
4:22 AM,68.0,64.4,88,30.14,10.0,Calm,Calm,-,N/A,,Overcast,0,2013-08-19 08:22:00
4:53 AM,68.0,64.0,87,30.13,10.0,Calm,Calm,-,N/A,,Overcast,0,2013-08-19 08:53:00
5:53 AM,66.9,63.0,87,30.13,10.0,Calm,Calm,-,N/A,,Overcast,0,2013-08-19 09:53:00
6:53 AM,66.0,63.0,90,30.14,6.0,Calm,Calm,-,N/A,,Mostly Cloudy,0,2013-08-19 10:53:00
7:53 AM,66.9,63.0,87,30.14,5.0,NW,5.8,-,N/A,,Overcast,310,2013-08-19 11:53:00
8:53 AM,66.9,62.1,84,30.16,5.0,NNW,4.6,-,N/A,,Haze,330,2013-08-19 12:53:00
9:32 AM,66.2,62.6,88,30.16,4.0,NNW,4.6,-,N/A,,Haze,330,2013-08-19 13:32:00
9:53 AM,66.9,63.0,87,30.16,5.0,Calm,Calm,-,N/A,,Overcast,0,2013-08-19 13:53:00
10:53 AM,68.0,63.0,84,30.16,5.0,Variable,3.5,-,N/A,,Haze,0,2013-08-19 14:53:00
11:53 AM,69.1,62.1,78,30.16,10.0,Calm,Calm,-,N/A,,Overcast,0,2013-08-19 15:53:00
12:18 PM,71.6,62.6,73,30.17,10.0,Calm,Calm,-,N/A,,Overcast,0,2013-08-19 16:18:00
12:53 PM,73.0,62.1,68,30.14,10.0,Calm,Calm,-,N/A,,Scattered Clouds,0,2013-08-19 16:53:00
1:53 PM,75.9,64.0,67,30.13,10.0,South,5.8,-,N/A,,Clear,170,2013-08-19 17:53:00
2:53 PM,77.0,61.0,58,30.12,10.0,Variable,3.5,-,N/A,,Partly Cloudy,0,2013-08-19 18:53:00
3:53 PM,78.1,57.9,50,30.11,10.0,Calm,Calm,-,N/A,,Partly Cloudy,0,2013-08-19 19:53:00
4:53 PM,80.1,59.0,48,30.09,10.0,WNW,4.6,-,N/A,,Clear,300,2013-08-19 20:53:00
5:53 PM,81.0,57.0,44,30.09,10.0,WNW,3.5,-,N/A,,Scattered Clouds,290,2013-08-19 21:53:00
6:53 PM,80.1,59.0,48,30.09,10.0,Calm,Calm,-,N/A,,Partly Cloudy,0,2013-08-19 22:53:00
7:53 PM,71.1,63.0,75,30.09,10.0,Calm,Calm,-,N/A,,Clear,0,2013-08-19 23:53:00
8:53 PM,66.9,61.0,81,30.10,8.0,Calm,Calm,-,N/A,,Clear,0,2013-08-20 00:53:00
9:53 PM,64.0,60.1,87,30.12,5.0,Calm,Calm,-,N/A,,Clear,0,2013-08-20 01:53:00
10:12 PM,62.6,59.0,88,30.13,1.8,Calm,Calm,-,N/A,,Clear,0,2013-08-20 02:12:00
10:18 PM,62.6,60.8,94,30.13,3.0,Calm,Calm,-,N/A,,Clear,0,2013-08-20 02:18:00
10:27 PM,62.6,57.2,82,30.13,1.8,Calm,Calm,-,N/A,,Haze,0,2013-08-20 02:27:00
10:39 PM,62.6,59.0,88,30.13,3.0,Calm,Calm,-,N/A,,Clear,0,2013-08-20 02:39:00
10:46 PM,62.6,59.0,88,30.13,2.0,Calm,Calm,-,N/A,,Clear,0,2013-08-20 02:46:00
10:53 PM,62.1,59.0,90,30.13,3.0,Calm,Calm,-,N/A,,Clear,0,2013-08-20 02:53:00
10:57 PM,62.6,59.0,88,30.14,1.8,Calm,Calm,-,N/A,,Clear,0,2013-08-20 02:57:00
11:00 PM,62.6,59.0,88,30.14,0.8,Calm,Calm,-,N/A,,Clear,0,2013-08-20 03:00:00
11:14 PM,62.6,59.0,88,30.14,1.5,Calm,Calm,-,N/A,,Clear,0,2013-08-20 03:14:00
11:22 PM,62.6,59.0,88,30.14,2.5,Calm,Calm,-,N/A,,Clear,0,2013-08-20 03:22:00
11:29 PM,62.6,60.8,94,30.14,4.0,Calm,Calm,-,N/A,,Clear,0,2013-08-20 03:29:00
11:53 PM,61.0,57.9,90,30.13,2.5,Calm,Calm,-,N/A,,Clear,0,2013-08-20 03:53:00